Weather in Volochisk

Ukraine / Khmelnitsky District     49˚32′17″N   26˚12′02″E
temp.,
°C
wind,
m/s
gust,
m/s
humid.,
%
clouds,
%
prec.,
mm/h
press.,
hPa
HPBL,
m
27 november, fri
fri2723:00w23660 0.0 102236
02:00wsw35780 0.0 102297
05:00−1˚w378280 0.0 1021151
08:00wsw487690 0.0 1021201
11:00+4˚w5965100 0.0 1021380
14:00+4˚wnw5974100 0.0 1020522
17:00+2˚wnw3790100 0.1 1020340
20:00+1˚wnw4798100 0.3 1021302
28 november, sat
sat2823:00+1˚w3697100 1.1 1021295
02:00+1˚wsw349896 1.2 102096
05:00wsw379564 0.0 1019171
08:00−1˚wsw359576 0.0 1019135
11:00+1˚w469593 0.3 1019315
14:00+2˚w248497 0.4 1018507
17:00+1˚wnw248793 0.1 1018230
20:00+1˚sw238197 0.1 1019135
29 november, sun
sun2923:00wsw3590100 0.0 1019254
02:00−1˚wsw3697100 0.1 1019281
05:00−1˚wnw3692100 0.1 1019322
08:00−2˚w3588100 0.1 1020331
11:00−1˚w3576100 0.0 1020628
14:00w456996 0.0 1020820
17:00−2˚w228270 0.0 102038
20:00−3˚wsw228435 0.0 102143
30 november, mon
mon3023:00−3˚sw238619 0.0 102262
02:00−3˚wsw228810 0.0 102339
05:00−3˚wsw12900 0.0 102323
08:00−3˚w11910 0.0 102421
11:00−1˚wnw227443 0.0 1025377
14:00nw226636 0.0 1026783
17:00−2˚nnw227897 0.0 102723
20:00−3˚nnw238761 0.0 102838
1 december, tue
tue123:00−4˚n22930 0.0 102939
02:00−4˚nne129640 0.0 102830
05:00−4˚nne129557 0.0 102821
08:00−4˚ne129064 0.0 102822
11:00−2˚ene236873 0.0 1028559
14:00−1˚ene236674 0.0 1026646
17:00−3˚ene238218 0.0 102652
20:00−4˚ene24859 0.0 102693